[[{"header":{"parameterUnit":"m.s-1","parameterCategory":1,"la1":30.2991,"la2":30.254,"lo1":-89.0895,"lo2":-89.0444,"dy":0.0017,"dx":0.0017,"nx":28,"ny":28,"refTime":"2025-08-26T03:00:00:Z","depth":0,"parameterNumber":2,"parameterNumberName":"U-component_of_WINDS"},"data":[0,0,0,0,0,0,0,0,0,0,0,0,0,0,0,0,0,0,0,0,0,0,0,0,0,0,0,0,0,0,0,0,0,0,0,0,0,0,0,0,0,0,0,0,0,0,0,0,0,0,0,0,0,0,0,0,0,0,0.2482,0.2483,0,0.2569,0.257,0.2571,0.2617,0.2617,0.2617,0.2617,0.2706,0.2708,0.2711,0,0,0,0,0,0,0,0,0,0,0,0,0,0.2358,0.236,0.2482,0.2483,0.2484,0.2569,0.257,0.2571,0.2617,0.2617,0.2617,0.2617,0.2705,0.2708,0.2711,0,0,0,0,0,0,0,0,0,0,0,0,0,0.2425,0.236,0.2482,0.2517,0.2521,0.2568,0.257,0.2571,0.2617,0.2617,0.2617,0.2617,0.2705,0.2708,0.2711,0.273,0,0,0.2722,0.2723,0,0,0,0,0,0,0,0,0.2421,0.2429,0.2511,0.2515,0.2519,0.2582,0.2559,0.2625,0.2616,0.258,0.2617,0.2617,0.2665,0.2672,0.2688,0.2734,0.2738,0.2722,0.2724,0.2726,0.2727,0,0,0,0,0,0,0,0.2416,0.2426,0.2516,0.2512,0.2517,0.2529,0.2539,0.2571,0.2621,0.2583,0.2587,0.2597,0.2667,0.2684,0.269,0.274,0.2722,0.2725,0.2727,0.2729,0.2807,0.2807,0,0,0,0,0,0,0.2406,0.2421,0.2514,0.2519,0.2469,0.2531,0.2542,0.2562,0.2621,0.263,0.2596,0.2598,0.2678,0.2686,0.2693,0.272,0.2726,0.2729,0.2731,0.2807,0.2807,0.2807,0,0,0,0,0,0,0.2403,0.2413,0.251,0.2471,0.2484,0.2533,0.2555,0.2563,0.258,0.263,0.264,0.2604,0.2679,0.2688,0.2721,0.2723,0.2731,0.2734,0.2807,0.2807,0.2807,0.2772,0,0,0,0,0,0,0.2399,0.2412,0.2419,0.2471,0.2486,0.2536,0.2555,0.2565,0.2586,0.259,0.264,0.2649,0.2679,0.2715,0.2724,0.2728,0.2736,0.2807,0.2807,0.2807,0.2773,0.2771,0.2769,0,0,0,0,0,0.2394,0.2406,0.2419,0.243,0.2496,0.2536,0.2544,0.2579,0.2586,0.2594,0.2626,0.2647,0.2722,0.2718,0.2729,0.2734,0.2807,0.2807,0.2807,0.2774,0.2771,0.2769,0,0,0,0,0,0,0.2353,0.2413,0.2429,0.2458,0.2491,0.2543,0.2554,0.2575,0.2607,0.2609,0.2651,0.2662,0.2691,0.2716,0.2711,0.2756,0.2767,0.2769,0.2738,0.2736,0.2734,0.2727,0.2739,0,0,0,0,0,0.2348,0.2374,0.2425,0.2446,0.2462,0.2505,0.2523,0.2547,0.2584,0.2598,0.2633,0.2668,0.2699,0.2719,0.2751,0.2777,0.2789,0.2786,0.2784,0.2782,0.2783,0.2799,0.2799,0.2807,0.2807,0.2807,0,0,0.2336,0.2372,0.2386,0.2438,0.2467,0.2494,0.2517,0.2544,0.2565,0.2603,0.2635,0.2662,0.2704,0.2733,0.2748,0.2755,0.2783,0.2782,0.278,0.2782,0.2799,0.2799,0.2798,0.2807,0.2807,0.2807,0,0,0.2329,0.2359,0.2379,0.2408,0.2451,0.248,0.2485,0.2534,0.2553,0.2586,0.2616,0.2641,0.2694,0.2723,0.2744,0.2749,0.2769,0.2758,0.2746,0.2762,0.2761,0.2761,0.2763,0.2763,0.2759,0.2759,0.2759,0,0.2309,0.235,0.2387,0.2413,0.2435,0.2471,0.2492,0.2518,0.2569,0.2584,0.2591,0.2659,0.269,0.2727,0.2728,0.2744,0.2751,0.2752,0.2758,0.2758,0.2759,0.2761,0.2761,0.2757,0.2757,0.2758,0.2758,0,0.2324,0.2352,0.2364,0.2412,0.2436,0.2459,0.25,0.252,0.2542,0.257,0.2604,0.2642,0.2682,0.2693,0.2715,0.2733,0.2736,0.275,0.2762,0.2755,0.2758,0.2759,0.2755,0.2755,0.2756,0.2756,0,0,0.2292,0.2362,0.2365,0.2388,0.2439,0.2461,0.2487,0.2526,0.2542,0.2577,0.2599,0.2644,0.2657,0.2682,0.2707,0.2721,0.2722,0.2734,0.2735,0.273,0.2746,0.2735,0.2735,0.2737,0.2737,0.2737,0.2743,0,0.2292,0.2339,0.2373,0.2407,0.2434,0.2469,0.2491,0.2525,0.2552,0.2579,0.261,0.2641,0.2656,0.2671,0.2686,0.2719,0.2726,0.2719,0.2758,0.2759,0.2746,0.2737,0.2725,0.2728,0.2744,0.2744,0.2744,0,0.2298,0.2331,0.2367,0.2416,0.2429,0.2448,0.2487,0.2512,0.2552,0.2571,0.2598,0.2625,0.2654,0.2663,0.2704,0.2699,0.2717,0.2736,0.2737,0.2742,0.2751,0.2741,0.273,0.273,0.2746,0.2746,0.2746,0,0.2271,0.2325,0.2354,0.2372,0.243,0.2443,0.2467,0.2507,0.2528,0.2563,0.2577,0.2615,0.2635,0.2664,0.27,0.2703,0.2737,0.275,0.2754,0.2753,0.2759,0.2758,0.275,0.2771,0.2771,0.2771,0.2771,0,0.2267,0.2287,0.2343,0.236,0.2385,0.2425,0.2448,0.2476,0.2511,0.2535,0.2568,0.259,0.2636,0.2664,0.2693,0.2723,0.2732,0.2748,0.2755,0.2745,0.2743,0.2757,0.2758,0.2771,0.2771,0.2771,0.2771,0,0.224,0.2278,0.2312,0.2364,0.2377,0.2393,0.2438,0.2457,0.2486,0.2517,0.2526,0.2572,0.2607,0.2646,0.2694,0.2713,0.2741,0.2751,0.2727,0.2731,0.2734,0.2733,0.2735,0.2737,0.2756,0.2756,0.2755,0,0.2235,0.2252,0.2306,0.2324,0.2348,0.2377,0.2399,0.244,0.2461,0.2508,0.2522,0.2559,0.2591,0.2645,0.2683,0.272,0.2731,0.273,0.2737,0.2726,0.2731,0.273,0.2732,0.2727,0.2727,0.2726,0.2726,0,0.2221,0.2239,0.227,0.2307,0.2333,0.2365,0.2398,0.2411,0.2458,0.2481,0.2517,0.2541,0.259,0.2627,0.2669,0.2695,0.2718,0.2724,0.2727,0.2716,0.2701,0.2709,0.2721,0.2723,0.2723,0.2724,0.2724,0.2724,0.2205,0.2222,0.2263,0.2296,0.2325,0.2355,0.2376,0.2408,0.2438,0.2481,0.2503,0.2539,0.2579,0.2638,0.2663,0.2692,0.27,0.2704,0.2705,0.2705,0.2703,0.2697,0.27,0.27,0.27,0.27,0.2701,0,0.2193,0.2221,0.2251,0.2296,0.2323,0.2343,0.2381,0.2402,0.2432,0.2468,0.2499,0.254,0.2576,0.2618,0.2657,0.2672,0.2684,0.2681,0.268,0.2686,0.2694,0.2687,0.2671,0.2671,0.2671,0.2671,0.2671,0.2671,0.2189,0.2219,0.2242,0.2287,0.2316,0.235,0.237,0.2399,0.2427,0.2472,0.2502,0.2529,0.2567,0.2609,0.2644,0.2655,0.2668,0.2662,0.2676,0.2683,0.2685,0.2687,0.2681,0.2664,0.2664,0.2666,0.2666,0.2666]},{"header":{"parameterUnit":"m.s-1","parameterCategory":1,"la1":30.2991,"la2":30.254,"lo1":-89.0895,"lo2":-89.0444,"dy":0.0017,"dx":0.0017,"nx":28,"ny":28,"refTime":"2025-08-26T03:00:00:Z","depth":0,"parameterNumber":3,"parameterNumberName":"V-component_of_WINDS"},"data":[0,0,0,0,0,0,0,0,0,0,0,0,0,0,0,0,0,0,0,0,0,0,0,0,0,0,0,0,0,0,0,0,0,0,0,0,0,0,0,0,0,0,0,0,0,0,0,0,0,0,0,0,0,0,0,0,0,0,-0.4437,-0.4438,0,-0.455,-0.4552,-0.4553,-0.4643,-0.4644,-0.4644,-0.4645,-0.4761,-0.4763,-0.4765,0,0,0,0,0,0,0,0,0,0,0,0,0,-0.4295,-0.4297,-0.4436,-0.4438,-0.4439,-0.455,-0.4552,-0.4553,-0.4642,-0.4644,-0.4645,-0.4646,-0.476,-0.4763,-0.4765,0,0,0,0,0,0,0,0,0,0,0,0,0,-0.4377,-0.4298,-0.4436,-0.4497,-0.4504,-0.455,-0.4552,-0.4554,-0.4642,-0.4644,-0.4645,-0.4646,-0.4759,-0.4762,-0.4766,-0.476,0,0,-0.4776,-0.4777,0,0,0,0,0,0,0,0,-0.4372,-0.4382,-0.4487,-0.4493,-0.4501,-0.4584,-0.4544,-0.4623,-0.4642,-0.459,-0.4645,-0.4647,-0.4701,-0.4709,-0.4727,-0.4765,-0.477,-0.4776,-0.4778,-0.478,-0.4781,0,0,0,0,0,0,0,-0.4367,-0.4378,-0.4482,-0.4488,-0.4497,-0.4518,-0.4532,-0.456,-0.4636,-0.4594,-0.4601,-0.4613,-0.4705,-0.4724,-0.4731,-0.4772,-0.4776,-0.4779,-0.4781,-0.4783,-0.4811,-0.481,0,0,0,0,0,0,-0.4352,-0.4373,-0.4478,-0.4485,-0.4439,-0.452,-0.4535,-0.4556,-0.4636,-0.465,-0.4612,-0.4617,-0.4717,-0.4727,-0.4735,-0.4734,-0.478,-0.4783,-0.4785,-0.4813,-0.4811,-0.481,0,0,0,0,0,0,-0.4348,-0.436,-0.4473,-0.4431,-0.4447,-0.4521,-0.4544,-0.4557,-0.4577,-0.465,-0.4664,-0.4618,-0.4719,-0.473,-0.4753,-0.474,-0.4784,-0.4787,-0.4814,-0.4812,-0.481,-0.4732,0,0,0,0,0,0,-0.4344,-0.4358,-0.4357,-0.443,-0.4449,-0.449,-0.4543,-0.4558,-0.4582,-0.459,-0.4659,-0.4671,-0.4721,-0.4748,-0.4757,-0.4745,-0.479,-0.4816,-0.4813,-0.4811,-0.4736,-0.4728,-0.4721,0,0,0,0,0,-0.4338,-0.4331,-0.4357,-0.4369,-0.4449,-0.4489,-0.45,-0.4557,-0.4581,-0.458,-0.4627,-0.4669,-0.4739,-0.4749,-0.476,-0.4749,-0.4817,-0.4814,-0.4811,-0.474,-0.473,-0.4721,0,0,0,0,0,0,-0.4254,-0.4341,-0.4371,-0.4387,-0.443,-0.4504,-0.4505,-0.4544,-0.4581,-0.4586,-0.4655,-0.467,-0.4686,-0.472,-0.4729,-0.4748,-0.4783,-0.4783,-0.4726,-0.4716,-0.4709,-0.4701,-0.4793,0,0,0,0,0,-0.4237,-0.4263,-0.4337,-0.4344,-0.4364,-0.443,-0.445,-0.449,-0.4537,-0.4556,-0.4605,-0.4648,-0.468,-0.47,-0.4734,-0.4741,-0.4758,-0.4739,-0.4731,-0.4724,-0.4723,-0.473,-0.4723,-0.48,-0.48,-0.48,0,0,-0.4203,-0.4254,-0.4266,-0.4328,-0.4366,-0.4391,-0.4445,-0.4469,-0.4488,-0.4559,-0.4585,-0.4621,-0.4675,-0.469,-0.4699,-0.4719,-0.4705,-0.4721,-0.4715,-0.4718,-0.4727,-0.4719,-0.4713,-0.4798,-0.4799,-0.4799,0,0,-0.4153,-0.4194,-0.4204,-0.4241,-0.4298,-0.4342,-0.4344,-0.4413,-0.444,-0.4466,-0.4521,-0.4544,-0.4597,-0.4633,-0.4658,-0.4621,-0.4662,-0.463,-0.459,-0.4595,-0.4589,-0.4584,-0.4572,-0.4566,-0.4628,-0.4628,-0.4628,0,-0.4104,-0.4144,-0.4204,-0.4225,-0.4251,-0.4317,-0.4328,-0.436,-0.4425,-0.4441,-0.4462,-0.4531,-0.4571,-0.4596,-0.4587,-0.4605,-0.461,-0.4623,-0.4585,-0.4581,-0.4577,-0.4566,-0.4561,-0.4624,-0.4625,-0.4625,-0.4625,0,-0.408,-0.4106,-0.4107,-0.4169,-0.4195,-0.421,-0.4273,-0.4291,-0.4329,-0.4371,-0.4396,-0.4447,-0.4492,-0.4501,-0.4537,-0.4531,-0.4541,-0.4572,-0.461,-0.4565,-0.4555,-0.4552,-0.4618,-0.462,-0.4621,-0.4622,0,0,-0.3982,-0.4076,-0.4076,-0.4104,-0.4171,-0.4193,-0.4211,-0.4255,-0.427,-0.4312,-0.4329,-0.4372,-0.4402,-0.443,-0.4472,-0.4477,-0.4445,-0.4508,-0.451,-0.4495,-0.4441,-0.4418,-0.4412,-0.4471,-0.447,-0.447,-0.4437,0,-0.3944,-0.3981,-0.4036,-0.4054,-0.408,-0.4142,-0.4158,-0.42,-0.4239,-0.4266,-0.4309,-0.4339,-0.4376,-0.4393,-0.4401,-0.4447,-0.4435,-0.445,-0.4488,-0.4489,-0.4474,-0.4407,-0.4383,-0.4349,-0.4433,-0.4433,-0.4432,0,-0.3905,-0.3944,-0.3965,-0.403,-0.4043,-0.4056,-0.4101,-0.4126,-0.4175,-0.4203,-0.4234,-0.4279,-0.4301,-0.4333,-0.4364,-0.4373,-0.4392,-0.4417,-0.4417,-0.4424,-0.4459,-0.4413,-0.4339,-0.4334,-0.4427,-0.4428,-0.4428,0,-0.3833,-0.389,-0.391,-0.3933,-0.4009,-0.4017,-0.4049,-0.4099,-0.4122,-0.4161,-0.4177,-0.4217,-0.424,-0.427,-0.4324,-0.4343,-0.4349,-0.4386,-0.4374,-0.4372,-0.4373,-0.4373,-0.4303,-0.4383,-0.4383,-0.4383,-0.4383,0,-0.3785,-0.3796,-0.3879,-0.3891,-0.3905,-0.3967,-0.3979,-0.4017,-0.4061,-0.4082,-0.4137,-0.4155,-0.4225,-0.4251,-0.4294,-0.4313,-0.4323,-0.4346,-0.4357,-0.4342,-0.4339,-0.4356,-0.436,-0.4382,-0.4382,-0.4382,-0.4383,0,-0.3708,-0.3763,-0.379,-0.386,-0.3877,-0.3884,-0.3944,-0.3958,-0.4,-0.4025,-0.4035,-0.41,-0.4134,-0.4191,-0.4241,-0.4269,-0.4281,-0.4299,-0.4264,-0.4272,-0.4256,-0.4257,-0.4196,-0.4191,-0.4272,-0.4271,-0.4271,0,-0.3674,-0.3684,-0.3755,-0.3773,-0.3803,-0.3831,-0.3855,-0.3916,-0.3939,-0.3995,-0.4002,-0.404,-0.4074,-0.4125,-0.4177,-0.4215,-0.4235,-0.4211,-0.4242,-0.4226,-0.4236,-0.4235,-0.4237,-0.4204,-0.4203,-0.4202,-0.4202,0,-0.361,-0.3637,-0.3669,-0.3711,-0.3738,-0.3774,-0.3812,-0.3824,-0.3893,-0.3916,-0.3951,-0.3977,-0.4028,-0.4065,-0.411,-0.4143,-0.4184,-0.4191,-0.4191,-0.4175,-0.4155,-0.4167,-0.4247,-0.4193,-0.4194,-0.4194,-0.4195,-0.4195,-0.3555,-0.3566,-0.3618,-0.3652,-0.3687,-0.3722,-0.3739,-0.3782,-0.3813,-0.386,-0.3893,-0.3926,-0.3975,-0.404,-0.407,-0.4097,-0.4115,-0.4114,-0.4114,-0.4113,-0.4107,-0.415,-0.4105,-0.4105,-0.4106,-0.4106,-0.4106,0,-0.3494,-0.353,-0.3561,-0.3613,-0.3639,-0.3675,-0.3719,-0.3739,-0.3768,-0.3809,-0.3841,-0.3881,-0.3917,-0.3972,-0.4012,-0.4022,-0.4042,-0.4031,-0.4031,-0.4038,-0.4088,-0.4085,-0.4014,-0.4014,-0.4014,-0.4014,-0.4014,-0.4014,-0.3466,-0.3487,-0.352,-0.356,-0.3596,-0.3629,-0.3651,-0.3683,-0.3717,-0.3759,-0.3789,-0.3824,-0.3871,-0.3915,-0.3949,-0.3964,-0.3977,-0.396,-0.398,-0.4026,-0.4035,-0.4043,-0.404,-0.3962,-0.3962,-0.3929,-0.3929,-0.3929]}]]